Change the Weather History Date:

Sunday, February 17, 2013

  Actual Average Record
Temperature  
Mean Temperature 18 °F -  
Max Temperature 32 °F 34 °F 64 °F (1981)
Min Temperature 5 °F 13 °F -25 °F (1979)
Degree Days  
Heating Degree Days 46    
Moisture  
Dew Point 11 °F    
Average Humidity 70    
Maximum Humidity 85    
Minimum Humidity 55    
Precipitation  
Precipitation 0.00 in - - ()
Sea Level Pressure  
Sea Level Pressure 30.04 in    
Wind  
Wind Speed 5 mph (ESE)    
Max Wind Speed 15 mph    
Max Gust Speed 21 mph    
Visibility 10 miles    
Events      
Averages and records for this station are not official NWS values.
T = Trace of Precipitation, MM = Missing Value Source: NWS Daily Summary

Daily Weather History Graph

Daily Weather History Graph

Search for Another Location

Airport or City:

Trip Planner

Search our weather history database for the weather conditions in past years. The results will help you decide how hot, cold, wet, or windy it might be!

Date:

Astronomy

Feb. 17, 2013 Rise Set
Actual Time 6:58 AM CST 5:38 PM CST
Civil Twilight 6:29 AM CST 6:07 PM CST
Nautical Twilight 5:56 AM CST 6:40 PM CST
Astronomical Twilight 5:23 AM CST 7:13 PM CST
Moon 10:39 AM CST (2/17) 12:46 AM CST (2/17)
Length of Visible Light 11h 38m
Length of Day
10h 40m
Waxing Crescent, 49% of the Moon is Illuminated
Feb 17
Waxing Crescent
Feb 17
First Quarter
Feb 25
Full
Mar 4
Last Quarter
Mar 11
New

Hourly Weather History & Observations

Time (CST) Temp. Windchill Dew Point Humidity Pressure Visibility Wind Dir Wind Speed Gust Speed Precip Events Conditions
12:15 AM 8.6 °F - 5.0 °F 85% 30.17 in 10.0 mi Calm Calm - N/A   Clear
12:35 AM 8.6 °F - 3.2 °F 79% 30.17 in 10.0 mi Calm Calm - N/A   Clear
12:55 AM 8.6 °F - 5.0 °F 85% 30.18 in 10.0 mi Calm Calm - N/A   Clear
1:15 AM 6.8 °F -0.1 °F 3.2 °F 85% 30.17 in 10.0 mi ESE 3.5 mph - N/A   Clear
1:35 AM 6.8 °F -0.1 °F 3.2 °F 85% 30.17 in 10.0 mi East 3.5 mph - N/A   Clear
1:55 AM 6.8 °F - 3.2 °F 85% 30.17 in 10.0 mi Calm Calm - N/A   Clear
2:15 AM 6.8 °F -0.1 °F 3.2 °F 85% 30.17 in 10.0 mi East 3.5 mph - N/A   Clear
2:35 AM 6.8 °F - 3.2 °F 85% 30.17 in 10.0 mi Calm Calm - N/A   Clear
2:55 AM 6.8 °F -0.1 °F 3.2 °F 85% 30.18 in 10.0 mi East 3.5 mph - N/A   Clear
3:15 AM 5.0 °F -2.1 °F 1.4 °F 85% 30.17 in 10.0 mi East 3.5 mph - N/A   Clear
3:35 AM 6.8 °F -2.0 °F 1.4 °F 79% 30.17 in 10.0 mi East 4.6 mph - N/A   Clear
3:55 AM 5.0 °F -4.1 °F 1.4 °F 85% 30.17 in 10.0 mi ESE 4.6 mph - N/A   Clear
4:15 AM 5.0 °F -4.1 °F 1.4 °F 85% 30.16 in 10.0 mi ESE 4.6 mph - N/A   Clear
4:35 AM 5.0 °F -4.1 °F 1.4 °F 85% 30.17 in 10.0 mi SE 4.6 mph - N/A   Clear
4:55 AM 5.0 °F -4.1 °F 1.4 °F 85% 30.17 in 10.0 mi ESE 4.6 mph - N/A   Clear
5:15 AM 5.0 °F -4.1 °F 1.4 °F 85% 30.17 in 10.0 mi East 4.6 mph - N/A   Scattered Clouds
5:35 AM 5.0 °F -4.1 °F 1.4 °F 85% 30.17 in 10.0 mi ESE 4.6 mph - N/A   Clear
5:55 AM 5.0 °F -5.6 °F 1.4 °F 85% 30.16 in 10.0 mi ESE 5.8 mph - N/A   Clear
6:15 AM 5.0 °F -4.1 °F 1.4 °F 85% 30.16 in 10.0 mi ESE 4.6 mph - N/A   Clear
6:35 AM 5.0 °F -5.6 °F 1.4 °F 85% 30.16 in 10.0 mi ESE 5.8 mph - N/A   Clear
6:55 AM 5.0 °F -4.1 °F 1.4 °F 85% 30.15 in 10.0 mi ESE 4.6 mph - N/A   Clear
7:15 AM 5.0 °F -4.1 °F 1.4 °F 85% 30.16 in 10.0 mi ESE 4.6 mph - N/A   Clear
7:35 AM 5.0 °F -4.1 °F 1.4 °F 85% 30.15 in 10.0 mi ESE 4.6 mph - N/A   Clear
7:55 AM 6.8 °F -3.5 °F 1.4 °F 79% 30.15 in 10.0 mi ESE 5.8 mph - N/A   Clear
8:15 AM 8.6 °F 0.1 °F 3.2 °F 79% 30.14 in 10.0 mi ESE 4.6 mph - N/A   Clear
8:35 AM 10.4 °F 4.0 °F 5.0 °F 79% 30.14 in 10.0 mi ESE 3.5 mph - N/A   Clear
8:55 AM 12.2 °F 2.9 °F 6.8 °F 79% 30.13 in 10.0 mi East 5.8 mph - N/A   Clear
9:15 AM 14.0 °F 3.9 °F 6.8 °F 73% 30.13 in 10.0 mi East 6.9 mph - N/A   Clear
9:35 AM 15.8 °F 8.6 °F 8.6 °F 73% 30.13 in 10.0 mi ESE 4.6 mph - N/A   Clear
9:55 AM 19.4 °F 9.5 °F 8.6 °F 63% 30.13 in 10.0 mi SE 8.1 mph - N/A   Clear
10:15 AM 19.4 °F 9.5 °F 10.4 °F 68% 30.13 in 10.0 mi ESE 8.1 mph - N/A   Clear
10:35 AM 21.2 °F 12.6 °F 10.4 °F 63% 30.12 in 10.0 mi SE 6.9 mph - N/A   Clear
10:55 AM 23.0 °F 13.9 °F 10.4 °F 59% 30.13 in 10.0 mi ESE 8.1 mph - N/A   Clear
11:15 AM 23.0 °F 13.1 °F 12.2 °F 63% 30.12 in 10.0 mi ESE 9.2 mph - N/A   Clear
11:35 AM 24.8 °F 14.0 °F 12.2 °F 59% 30.11 in 10.0 mi ESE 11.5 mph - N/A   Clear
11:55 AM 24.8 °F 14.0 °F 12.2 °F 59% 30.10 in 10.0 mi ESE 11.5 mph - N/A   Clear
12:15 PM 26.6 °F 18.2 °F 14.0 °F 59% 30.08 in 10.0 mi ESE 8.1 mph - N/A   Clear
12:55 PM 28.4 °F 21.2 °F 14.0 °F 55% 30.06 in 10.0 mi SE 6.9 mph 16.1 mph N/A   Clear
1:15 PM 28.4 °F 18.5 °F 15.8 °F 59% 30.04 in 10.0 mi ESE 11.5 mph - N/A   Clear
1:35 PM 28.4 °F 19.7 °F 15.8 °F 59% 30.03 in 10.0 mi ESE 9.2 mph 17.3 mph N/A   Clear
1:55 PM 30.2 °F 23.4 °F 15.8 °F 55% 30.02 in 10.0 mi ESE 6.9 mph - N/A   Clear
2:15 PM 30.2 °F 21.3 °F 15.8 °F 55% 30.01 in 10.0 mi ESE 10.4 mph 16.1 mph N/A   Clear
2:35 PM 30.2 °F 20.2 °F 17.6 °F 60% 30.00 in 10.0 mi ESE 12.7 mph - N/A   Clear
2:55 PM 30.2 °F 21.3 °F 17.6 °F 60% 30.00 in 10.0 mi ESE 10.4 mph - N/A   Clear
3:15 PM 30.2 °F 20.8 °F 17.6 °F 60% 29.99 in 10.0 mi ESE 11.5 mph - N/A   Clear
3:35 PM 30.2 °F 20.2 °F 17.6 °F 60% 29.97 in 10.0 mi ESE 12.7 mph 19.6 mph N/A   Clear
3:55 PM 32.0 °F 24.2 °F 17.6 °F 55% 29.97 in 10.0 mi ESE 9.2 mph - N/A   Clear
4:15 PM 30.2 °F 19.3 °F 17.6 °F 60% 29.95 in 10.0 mi ESE 15.0 mph 18.4 mph N/A   Clear
4:35 PM 30.2 °F 20.2 °F 17.6 °F 60% 29.94 in 10.0 mi ESE 12.7 mph 18.4 mph N/A   Clear
4:55 PM 30.2 °F 22.6 °F 17.6 °F 60% 29.93 in 10.0 mi ESE 8.1 mph - N/A   Clear
5:15 PM 30.2 °F 21.3 °F 17.6 °F 60% 29.93 in 10.0 mi ESE 10.4 mph - N/A   Clear
5:35 PM 30.2 °F 21.9 °F 17.6 °F 60% 29.93 in 10.0 mi ESE 9.2 mph - N/A   Clear
5:55 PM 30.2 °F 23.4 °F 17.6 °F 60% 29.93 in 10.0 mi ESE 6.9 mph - N/A   Clear
6:15 PM 30.2 °F 20.8 °F 17.6 °F 60% 29.91 in 10.0 mi ESE 11.5 mph - N/A   Clear
6:55 PM 30.2 °F 21.9 °F 19.4 °F 64% 29.91 in 10.0 mi ESE 9.2 mph - N/A   Clear
7:15 PM 30.2 °F 21.9 °F 19.4 °F 64% 29.90 in 10.0 mi ESE 9.2 mph - N/A   Clear
7:35 PM 30.2 °F 21.9 °F 19.4 °F 64% 29.89 in 10.0 mi ESE 9.2 mph 18.4 mph N/A   Clear
7:55 PM 30.2 °F 21.3 °F 19.4 °F 64% 29.89 in 10.0 mi ESE 10.4 mph - N/A   Clear
8:15 PM 30.2 °F 21.9 °F 19.4 °F 64% 29.88 in 10.0 mi ESE 9.2 mph - N/A   Clear
8:35 PM 30.2 °F 23.4 °F 19.4 °F 64% 29.88 in 10.0 mi ESE 6.9 mph - N/A   Clear
8:55 PM 30.2 °F 22.6 °F 19.4 °F 64% 29.87 in 10.0 mi ESE 8.1 mph - N/A   Clear
9:15 PM 30.2 °F 21.3 °F 19.4 °F 64% 29.86 in 10.0 mi ESE 10.4 mph 16.1 mph N/A   Clear
9:35 PM 30.2 °F 21.9 °F 19.4 °F 64% 29.85 in 10.0 mi ESE 9.2 mph 16.1 mph N/A   Clear
9:55 PM 30.2 °F 21.9 °F 19.4 °F 64% 29.84 in 10.0 mi ESE 9.2 mph - N/A   Clear
10:15 PM 32.0 °F 23.0 °F 19.4 °F 60% 29.82 in 10.0 mi ESE 11.5 mph 20.7 mph N/A   Clear
10:35 PM 32.0 °F 24.2 °F 19.4 °F 60% 29.82 in 10.0 mi ESE 9.2 mph - N/A   Clear
10:55 PM 32.0 °F 24.2 °F 19.4 °F 60% 29.82 in 10.0 mi ESE 9.2 mph - N/A   Clear
11:15 PM 32.0 °F 23.6 °F 21.2 °F 64% 29.81 in 10.0 mi SE 10.4 mph - N/A   Clear
11:35 PM 32.0 °F 23.6 °F 21.2 °F 64% 29.81 in 10.0 mi ESE 10.4 mph 16.1 mph N/A   Clear
11:55 PM 32.0 °F 24.8 °F 21.2 °F 64% 29.80 in 10.0 mi SE 8.1 mph - N/A   Clear